| time (UTC) | temp C | wind direction | speed KPH | gust KPH | rain 1hr cm | rain 24hr cm | rain mn cm | humidity % | barometer mb |
| 20260505052123 | 12 | 111 | 1.6 | 3.2 | 0.00 | 0.00 | 0.00 | 79 | 1018.3 |
| 20260505051619 | 12 | 115 | 1.6 | 3.2 | 0.00 | 0.00 | 0.00 | 79 | 1018.6 |
| 20260505051118 | 12 | 118 | 1.6 | 3.2 | 0.00 | 0.00 | 0.00 | 79 | 1018.4 |
| 20260505050615 | 12 | 138 | 1.6 | 3.2 | 0.00 | 0.00 | 0.00 | 78 | 1018.6 |
| 20260505050113 | 12 | 116 | 0.0 | 3.2 | 0.00 | 0.00 | 0.00 | 77 | 1018.4 |
| 20260505041543 | 13 | 131 | 0.0 | 0.0 | 0.00 | 0.00 | 0.00 | 76 | 1018.2 |
| 20260505041041 | 13 | 97 | 3.2 | 3.2 | 0.00 | 0.00 | 0.00 | 75 | 1018.3 |
| 20260505040538 | 13 | 122 | 1.6 | 3.2 | 0.00 | 0.00 | 0.00 | 75 | 1018.4 |
| 20260505040035 | 13 | 125 | 3.2 | 3.2 | 0.00 | 0.00 | 0.00 | 75 | 1018.7 |
| 20260505035531 | 13 | 134 | 0.0 | 3.2 | 0.00 | 0.00 | 0.00 | 75 | 1018.3 |
| 20260505035028 | 13 | 122 | 3.2 | 3.2 | 0.00 | 0.00 | 0.00 | 75 | 1018.4 |
| 20260505034524 | 13 | 104 | 1.6 | 3.2 | 0.00 | 0.00 | 0.00 | 76 | 1018.7 |
| 20260505034021 | 13 | 141 | 1.6 | 3.2 | 0.00 | 0.00 | 0.00 | 75 | 1018.4 |
| 20260505033518 | 13 | 126 | 3.2 | 3.2 | 0.00 | 0.00 | 0.00 | 74 | 1018.7 |
| 20260505033016 | 13 | 135 | 0.0 | 1.6 | 0.00 | 0.00 | 0.00 | 73 | 1018.6 |
| 20260505032513 | 13 | 132 | 1.6 | 3.2 | 0.00 | 0.00 | 0.00 | 73 | 1018.6 |
| 20260505032010 | 13 | 127 | 1.6 | 3.2 | 0.00 | 0.00 | 0.00 | 73 | 1018.3 |
| 20260505031507 | 13 | 105 | 1.6 | 3.2 | 0.00 | 0.00 | 0.00 | 72 | 1018.7 |
| 20260505031004 | 13 | 122 | 1.6 | 3.2 | 0.00 | 0.00 | 0.00 | 72 | 1018.7 |
| 20260505030500 | 14 | 148 | 3.2 | 3.2 | 0.00 | 0.00 | 0.00 | 70 | 1018.4 |
| 20260505025955 | 14 | 134 | 0.0 | 3.2 | 0.00 | 0.00 | 0.00 | 72 | 1018.6 |
| 20260505025453 | 14 | 122 | 0.0 | 3.2 | 0.00 | 0.00 | 0.00 | 71 | 1018.6 |
| 20260505024951 | 14 | 124 | 1.6 | 3.2 | 0.00 | 0.00 | 0.00 | 70 | 1018.6 |
| 20260505024448 | 15 | 116 | 1.6 | 3.2 | 0.00 | 0.00 | 0.00 | 70 | 1018.7 |
| 20260505023945 | 15 | 130 | 3.2 | 3.2 | 0.00 | 0.00 | 0.00 | 70 | 1018.6 |
| 20260505023442 | 15 | 131 | 0.0 | 3.2 | 0.00 | 0.00 | 0.00 | 68 | 1018.7 |
| 20260505022939 | 15 | 128 | 3.2 | 3.2 | 0.00 | 0.00 | 0.00 | 69 | 1018.6 |
| 20260505022437 | 15 | 134 | 1.6 | 3.2 | 0.00 | 0.00 | 0.00 | 68 | 1018.3 |
| 20260505021934 | 15 | 123 | 1.6 | 3.2 | 0.00 | 0.00 | 0.00 | 67 | 1018.2 |
| 20260505021430 | 15 | 126 | 1.6 | 3.2 | 0.00 | 0.00 | 0.00 | 67 | 1018.3 |
| 20260505020926 | 15 | 91 | 1.6 | 3.2 | 0.00 | 0.00 | 0.00 | 67 | 1018.2 |
| 20260505020422 | 15 | 133 | 3.2 | 3.2 | 0.00 | 0.00 | 0.00 | 67 | 1018.4 |
| 20260505015919 | 16 | 146 | 1.6 | 3.2 | 0.00 | 0.00 | 0.00 | 66 | 1018.2 |
| 20260505015416 | 16 | 134 | 1.6 | 3.2 | 0.00 | 0.00 | 0.00 | 64 | 1018.2 |
| 20260505014913 | 16 | 110 | 0.0 | 1.6 | 0.00 | 0.00 | 0.00 | 63 | 1018.2 |
| 20260505014410 | 16 | 128 | 1.6 | 1.6 | 0.00 | 0.00 | 0.00 | 62 | 1018.1 |
| 20260505013907 | 16 | 125 | 0.0 | 1.6 | 0.00 | 0.00 | 0.00 | 62 | 1018.1 |
| 20260505013404 | 16 | 140 | 1.6 | 3.2 | 0.00 | 0.00 | 0.00 | 61 | 1018.1 |
| 20260505012902 | 17 | 133 | 1.6 | 3.2 | 0.00 | 0.00 | 0.00 | 60 | 1018.0 |
| 20260505012400 | 17 | 143 | 1.6 | 3.2 | 0.00 | 0.00 | 0.00 | 60 | 1018.1 |
| 20260505011855 | 17 | 131 | 1.6 | 1.6 | 0.00 | 0.00 | 0.00 | 58 | 1018.1 |
| 20260505011352 | 17 | 137 | 1.6 | 3.2 | 0.00 | 0.00 | 0.00 | 58 | 1017.9 |
| 20260505010849 | 17 | 148 | 3.2 | 3.2 | 0.00 | 0.00 | 0.00 | 59 | 1018.0 |
| 20260505010344 | 17 | 130 | 0.0 | 3.2 | 0.00 | 0.00 | 0.00 | 56 | 1017.9 |
| 20260505005841 | 18 | 131 | 0.0 | 1.6 | 0.00 | 0.00 | 0.00 | 57 | 1017.8 |
| 20260505005338 | 18 | 153 | 1.6 | 1.6 | 0.00 | 0.00 | 0.00 | 57 | 1017.9 |
| 20260505004836 | 18 | 145 | 0.0 | 1.6 | 0.00 | 0.00 | 0.00 | 56 | 1017.6 |
| 20260505004331 | 18 | 119 | 0.0 | 1.6 | 0.00 | 0.00 | 0.00 | 55 | 1017.8 |
| 20260505003829 | 18 | 130 | 0.0 | 1.6 | 0.00 | 0.00 | 0.00 | 54 | 1017.5 |
| 20260505003326 | 19 | 134 | 0.0 | 3.2 | 0.00 | 0.00 | 0.00 | 53 | 1017.6 |
| 20260505002822 | 19 | 147 | 1.6 | 1.6 | 0.00 | 0.00 | 0.00 | 52 | 1017.5 |
| 20260505002319 | 20 | 129 | 0.0 | 1.6 | 0.00 | 0.00 | 0.00 | 52 | 1017.6 |
| 20260505001818 | 20 | 141 | 0.0 | 1.6 | 0.00 | 0.00 | 0.00 | 51 | 1017.5 |
| 20260505001314 | 20 | 138 | 0.0 | 1.6 | 0.00 | 0.00 | 0.00 | 50 | 1017.5 |
| 20260505000812 | 20 | 127 | 1.6 | 1.6 | 0.00 | 0.00 | 0.00 | 51 | 1017.4 |
| 20260505000310 | 20 | 120 | 1.6 | 3.2 | 0.00 | 0.00 | 0.00 | 50 | 1017.5 |
| 20260504235805 | 21 | 135 | 0.0 | 1.6 | 0.00 | 0.00 | 0.00 | 49 | 1017.4 |
| 20260504235304 | 21 | 124 | 1.6 | 1.6 | 0.00 | 0.00 | 0.00 | 50 | 1017.5 |
| 20260504234759 | 21 | 120 | 0.0 | 1.6 | 0.00 | 0.00 | 0.00 | 49 | 1017.3 |
| 20260504234257 | 21 | 126 | 1.6 | 1.6 | 0.00 | 0.00 | 0.00 | 51 | 1017.3 |
| 20260504233753 | 21 | 122 | 1.6 | 1.6 | 0.00 | 0.00 | 0.00 | 50 | 1017.4 |
| 20260504233248 | 21 | 129 | 0.0 | 3.2 | 0.00 | 0.00 | 0.00 | 50 | 1017.4 |
| 20260504232746 | 21 | 122 | 1.6 | 1.6 | 0.00 | 0.00 | 0.00 | 48 | 1017.5 |
| 20260504232243 | 21 | 139 | 3.2 | 3.2 | 0.00 | 0.00 | 0.00 | 46 | 1017.4 |
| 20260504231740 | 22 | 142 | 0.0 | 0.0 | 0.00 | 0.00 | 0.00 | 46 | 1017.4 |
| 20260504231236 | 22 | 147 | 0.0 | 1.6 | 0.00 | 0.00 | 0.00 | 46 | 1017.4 |
| 20260504230732 | 22 | 147 | 0.0 | 0.0 | 0.00 | 0.00 | 0.00 | 47 | 1017.5 |
| 20260504230231 | 22 | 128 | 1.6 | 3.2 | 0.00 | 0.00 | 0.00 | 49 | 1017.6 |
| 20260504225729 | 22 | 164 | 0.0 | 3.2 | 0.00 | 0.00 | 0.00 | 49 | 1017.6 |
| 20260504225225 | 22 | 145 | 0.0 | 4.8 | 0.00 | 0.00 | 0.00 | 44 | 1017.6 |
| 20260504224722 | 22 | 126 | 0.0 | 0.0 | 0.00 | 0.00 | 0.00 | 48 | 1017.6 |
| 20260504224220 | 22 | 131 | 0.0 | 3.2 | 0.00 | 0.00 | 0.00 | 49 | 1017.7 |
| 20260504223716 | 22 | 119 | 1.6 | 3.2 | 0.00 | 0.00 | 0.00 | 49 | 1017.7 |
| 20260504223211 | 22 | 132 | 0.0 | 3.2 | 0.00 | 0.00 | 0.00 | 50 | 1017.8 |
| 20260504222709 | 22 | 113 | 3.2 | 3.2 | 0.00 | 0.00 | 0.00 | 49 | 1017.7 |
| 20260504222205 | 23 | 154 | 0.0 | 1.6 | 0.00 | 0.00 | 0.00 | 49 | 1017.7 |
| 20260504221703 | 23 | 158 | 1.6 | 3.2 | 0.00 | 0.00 | 0.00 | 50 | 1017.7 |
| 20260504221200 | 24 | 122 | 3.2 | 3.2 | 0.00 | 0.00 | 0.00 | 49 | 1017.8 |
| 20260504220656 | 24 | 147 | 1.6 | 3.2 | 0.00 | 0.00 | 0.00 | 47 | 1017.5 |
| 20260504220154 | 23 | 120 | 0.0 | 3.2 | 0.00 | 0.00 | 0.00 | 48 | 1017.5 |
| 20260504215650 | 24 | 126 | 3.2 | 3.2 | 0.00 | 0.00 | 0.00 | 47 | 1017.5 |
| 20260504215147 | 23 | 19 | 1.6 | 3.2 | 0.00 | 0.00 | 0.00 | 44 | 1017.5 |
| 20260504214643 | 23 | 156 | 0.0 | 1.6 | 0.00 | 0.00 | 0.00 | 47 | 1017.6 |
| 20260504214140 | 23 | 113 | 0.0 | 3.2 | 0.00 | 0.00 | 0.00 | 42 | 1017.4 |
| 20260504213636 | 23 | 101 | 1.6 | 4.8 | 0.00 | 0.00 | 0.00 | 48 | 1017.3 |
| 20260504213133 | 23 | 134 | 0.0 | 3.2 | 0.00 | 0.00 | 0.00 | 44 | 1017.5 |
| 20260504212629 | 23 | 126 | 1.6 | 1.6 | 0.00 | 0.00 | 0.00 | 44 | 1017.6 |
| 20260504212126 | 22 | 147 | 1.6 | 3.2 | 0.00 | 0.00 | 0.00 | 49 | 1017.5 |
| 20260504211624 | 23 | 125 | 1.6 | 3.2 | 0.00 | 0.00 | 0.00 | 48 | 1017.5 |
| 20260504211120 | 24 | 89 | 1.6 | 4.8 | 0.00 | 0.00 | 0.00 | 45 | 1017.6 |
| 20260504210618 | 25 | 100 | 1.6 | 3.2 | 0.00 | 0.00 | 0.00 | 40 | 1017.4 |
| 20260504210114 | 25 | 128 | 3.2 | 4.8 | 0.00 | 0.00 | 0.00 | 43 | 1017.5 |
| 20260504205612 | 25 | 127 | 3.2 | 3.2 | 0.00 | 0.00 | 0.00 | 43 | 1017.7 |
| 20260504205109 | 23 | 93 | 3.2 | 4.8 | 0.00 | 0.00 | 0.00 | 43 | 1017.6 |
| 20260504204608 | 24 | 108 | 3.2 | 4.8 | 0.00 | 0.00 | 0.00 | 47 | 1017.7 |
| 20260504204106 | 25 | 145 | 3.2 | 4.8 | 0.00 | 0.00 | 0.00 | 37 | 1017.6 |
| 20260504203604 | 26 | 125 | 1.6 | 3.2 | 0.00 | 0.00 | 0.00 | 35 | 1017.8 |
| 20260504203101 | 26 | 136 | 6.4 | 6.4 | 0.00 | 0.00 | 0.00 | 36 | 1017.8 |
| 20260504202556 | 26 | 121 | 6.4 | 6.4 | 0.00 | 0.00 | 0.00 | 38 | 1017.9 |
| 20260504202054 | 26 | 209 | 1.6 | 4.8 | 0.00 | 0.00 | 0.00 | 36 | 1018.0 |
| 20260504201550 | 26 | 146 | 1.6 | 4.8 | 0.00 | 0.00 | 0.00 | 38 | 1017.9 |
| 20260504201048 | 26 | 127 | 3.2 | 3.2 | 0.00 | 0.00 | 0.00 | 37 | 1018.1 |
| 20260504200544 | 27 | 127 | 3.2 | 3.2 | 0.00 | 0.00 | 0.00 | 38 | 1018.0 |
| 20260504200042 | 26 | 173 | 0.0 | 3.2 | 0.00 | 0.00 | 0.00 | 37 | 1018.0 |
| 20260504195537 | 26 | 85 | 3.2 | 4.8 | 0.00 | 0.00 | 0.00 | 40 | 1018.2 |
| 20260504195034 | 26 | 192 | 3.2 | 4.8 | 0.00 | 0.00 | 0.00 | 34 | 1018.2 |
| 20260504194531 | 27 | 89 | 3.2 | 3.2 | 0.00 | 0.00 | 0.00 | 37 | 1018.1 |
| 20260504194026 | 26 | 95 | 3.2 | 3.2 | 0.00 | 0.00 | 0.00 | 36 | 1018.2 |
| 20260504193523 | 26 | 20 | 1.6 | 4.8 | 0.00 | 0.00 | 0.00 | 36 | 1018.2 |
| 20260504193022 | 26 | 103 | 4.8 | 6.4 | 0.00 | 0.00 | 0.00 | 36 | 1018.6 |
| 20260504192520 | 25 | 112 | 3.2 | 4.8 | 0.00 | 0.00 | 0.00 | 43 | 1018.7 |
| 20260504192018 | 25 | 115 | 3.2 | 6.4 | 0.00 | 0.00 | 0.00 | 42 | 1018.6 |
| 20260504191515 | 26 | 115 | 6.4 | 8.0 | 0.00 | 0.00 | 0.00 | 38 | 1018.6 |
| 20260504191011 | 26 | 34 | 1.6 | 6.4 | 0.00 | 0.00 | 0.00 | 36 | 1018.8 |
| 20260504190507 | 26 | 121 | 4.8 | 6.4 | 0.00 | 0.00 | 0.00 | 36 | 1018.9 |
| 20260504190003 | 26 | 192 | 1.6 | 3.2 | 0.00 | 0.00 | 0.00 | 36 | 1019.0 |
| 20260504185501 | 26 | 154 | 3.2 | 4.8 | 0.00 | 0.00 | 0.00 | 36 | 1019.0 |
| 20260504184957 | 26 | 109 | 3.2 | 3.2 | 0.00 | 0.00 | 0.00 | 37 | 1019.2 |
| 20260504184452 | 26 | 48 | 3.2 | 3.2 | 0.00 | 0.00 | 0.00 | 36 | 1019.2 |
| 20260504183948 | 26 | 172 | 3.2 | 4.8 | 0.00 | 0.00 | 0.00 | 35 | 1019.2 |
| 20260504183446 | 26 | 89 | 0.0 | 3.2 | 0.00 | 0.00 | 0.00 | 35 | 1019.3 |
| 20260504182944 | 25 | 190 | 3.2 | 4.8 | 0.00 | 0.00 | 0.00 | 40 | 1019.4 |
| 20260504182440 | 26 | 99 | 3.2 | 3.2 | 0.00 | 0.00 | 0.00 | 41 | 1019.4 |
| 20260504181938 | 25 | 320 | 1.6 | 3.2 | 0.00 | 0.00 | 0.00 | 38 | 1019.5 |
| 20260504181434 | 25 | 269 | 0.0 | 3.2 | 0.00 | 0.00 | 0.00 | 40 | 1019.4 |
| 20260504180933 | 25 | 74 | 1.6 | 3.2 | 0.00 | 0.00 | 0.00 | 40 | 1019.5 |
| 20260504180432 | 24 | 205 | 3.2 | 3.2 | 0.00 | 0.00 | 0.00 | 40 | 1019.7 |
| 20260504175930 | 25 | 62 | 3.2 | 4.8 | 0.00 | 0.00 | 0.00 | 38 | 1019.8 |
| 20260504175426 | 24 | 339 | 0.0 | 4.8 | 0.00 | 0.00 | 0.00 | 40 | 1019.8 |
| 20260504174924 | 24 | 256 | 3.2 | 6.4 | 0.00 | 0.00 | 0.00 | 38 | 1019.8 |
| 20260504174421 | 24 | 107 | 3.2 | 6.4 | 0.00 | 0.00 | 0.00 | 40 | 1019.7 |
| 20260504173919 | 24 | 174 | 3.2 | 3.2 | 0.00 | 0.00 | 0.00 | 45 | 1019.9 |
| 20260504173415 | 23 | 95 | 3.2 | 4.8 | 0.00 | 0.00 | 0.00 | 41 | 1019.7 |
| 20260504172913 | 23 | 147 | 0.0 | 3.2 | 0.00 | 0.00 | 0.00 | 42 | 1020.0 |
| 20260504172408 | 23 | 213 | 3.2 | 6.4 | 0.00 | 0.00 | 0.00 | 39 | 1020.0 |
| 20260504171905 | 23 | 59 | 0.0 | 3.2 | 0.00 | 0.00 | 0.00 | 41 | 1020.0 |
| 20260504171402 | 22 | 179 | 3.2 | 4.8 | 0.00 | 0.00 | 0.00 | 40 | 1020.1 |
| 20260504170859 | 23 | 241 | 3.2 | 4.8 | 0.00 | 0.00 | 0.00 | 38 | 1020.1 |
| 20260504170355 | 22 | 177 | 3.2 | 4.8 | 0.00 | 0.00 | 0.00 | 39 | 1020.3 |
| 20260504160314 | 21 | 27 | 1.6 | 3.2 | 0.00 | 0.00 | 0.00 | 46 | 1020.9 |
| 20260504150739 | 18 | 153 | 3.2 | 3.2 | 0.00 | 0.00 | 0.00 | 54 | 1021.4 |
| 20260504150236 | 18 | 175 | 3.2 | 3.2 | 0.00 | 0.00 | 0.00 | 57 | 1021.4 |
| 20260504141205 | 16 | 80 | 3.2 | 4.8 | 0.00 | 0.00 | 0.00 | 68 | 1021.7 |
| 20260504140702 | 15 | 134 | 1.6 | 4.8 | 0.00 | 0.00 | 0.00 | 72 | 1021.6 |
| 20260504140157 | 15 | 63 | 1.6 | 4.8 | 0.00 | 0.00 | 0.00 | 76 | 1021.7 |
| 20260504130626 | 10 | 110 | 3.2 | 3.2 | 0.00 | 0.00 | 0.00 | 95 | 1021.5 |
| 20260504130123 | 10 | 105 | 3.2 | 3.2 | 0.00 | 0.00 | 0.00 | 95 | 1021.6 |
| 20260504110514 | 6 | 120 | 1.6 | 3.2 | 0.00 | 0.00 | 0.00 | 97 | 1020.8 |
| 20260504100436 | 6 | 118 | 3.2 | 3.2 | 0.00 | 0.00 | 0.00 | 95 | 1020.7 |
| 20260504081829 | 7 | 101 | 3.2 | 3.2 | 0.00 | 0.00 | 0.00 | 93 | 1021.2 |
| 20260504081326 | 7 | 113 | 3.2 | 3.2 | 0.00 | 0.00 | 0.00 | 93 | 1021.0 |
| 20260504080821 | 7 | 136 | 1.6 | 3.2 | 0.00 | 0.00 | 0.00 | 93 | 1020.7 |
| 20260504080319 | 7 | 107 | 3.2 | 3.2 | 0.00 | 0.00 | 0.00 | 93 | 1020.6 |
| 20260504070246 | 7 | 106 | 3.2 | 3.2 | 0.00 | 0.00 | 0.00 | 93 | 1021.4 |
| 20260504060207 | 8 | 131 | 3.2 | 3.2 | 0.00 | 0.00 | 0.00 | 89 | 1021.3 |